EW7349 Weather Reports


time (UTC)temp
F
wind
direction
speed
knots
gust
knots
rain 1hr
in
rain 24hr
in
rain mn
in
humidity
%
barometer
mb
20260901143724 83 215 0.0 0.0 0.00 0.00 0.00 79 1017.5
20260901143222 83 209 0.0 0.0 0.00 0.00 0.00 79 1017.5
20260901142724 83 201 0.0 2.6 0.00 0.00 0.00 79 1017.5
20260901142223 83 281 0.0 2.6 0.00 0.00 0.00 77 1017.5
20260901141723 83 229 0.0 2.6 0.00 0.00 0.00 79 1017.5
20260901141223 82 244 0.0 2.6 0.00 0.00 0.00 79 1017.5
20260901140723 81 5 0.0 1.7 0.00 0.00 0.00 81 1017.5
20260901140223 80 248 0.0 1.7 0.00 0.00 0.00 83 1017.4
20260901135724 80 279 0.0 1.7 0.00 0.00 0.00 84 1017.4
20260901135713 79 251 0.9 3.5 0.00 0.00 0.00 85 1017.4
20260901134723 78 283 0.0 3.5 0.00 0.00 0.00 88 1017.5
20260901134223 77 225 0.0 1.7 0.00 0.00 0.00 88 1017.5
20260901133722 77 220 0.9 3.5 0.00 0.00 0.00 88 1017.5
20260901133222 77 207 0.9 3.5 0.00 0.00 0.00 89 1017.6
20260901132722 77 273 0.0 2.6 0.00 0.00 0.00 91 1017.6
20260901132224 76 347 0.0 1.7 0.00 0.00 0.00 93 1017.6
20260901131723 75 246 0.0 1.7 0.00 0.00 0.00 93 1017.6
20260901131223 75 246 0.0 2.6 0.00 0.00 0.00 94 1017.6
20260901130722 75 266 0.9 2.6 0.00 0.00 0.00 94 1017.7
20260901130221 75 284 0.0 2.6 0.00 0.00 0.00 94 1017.8
20260901125723 75 240 0.0 0.0 0.00 0.00 0.00 94 1017.9
20260901125214 74 252 0.0 0.0 0.00 0.00 0.00 94 1017.9
20260901124709 74 252 0.0 0.0 0.00 0.00 0.00 94 1017.9
20260901124203 74 252 0.0 0.0 0.00 0.00 0.00 94 1017.8
20260901123656 74 252 0.0 0.0 0.00 0.00 0.00 94 1017.8
20260901123419 74 252 0.0 0.9 0.00 0.00 0.00 94 1017.8
20260901122916 74 252 0.0 1.7 0.00 0.00 0.00 94 1017.7
20260901122153 74 252 0.0 1.7 0.00 0.00 0.00 94 1017.7
20260901121652 74 241 0.0 0.9 0.00 0.00 0.00 94 1017.6
20260901121150 74 241 0.0 0.9 0.00 0.00 0.00 94 1017.6
20260901120650 73 241 0.0 0.9 0.00 0.00 0.00 94 1017.7
20260901120151 73 241 0.0 0.9 0.00 0.00 0.00 94 1017.6
20260901115649 73 241 0.0 0.9 0.00 0.00 0.00 94 1017.6
20260901115149 73 241 0.0 1.7 0.00 0.00 0.00 94 1017.5
20260901114650 73 241 0.0 1.7 0.00 0.00 0.00 94 1017.5
20260901114146 73 241 0.0 0.9 0.00 0.00 0.00 94 1017.5
20260901113647 73 241 0.0 0.9 0.00 0.00 0.00 94 1017.5
20260901113623 73 241 0.0 0.9 0.00 0.00 0.00 94 1017.4
20260901112642 73 241 0.0 0.9 0.00 0.00 0.00 94 1017.4
20260901112401 73 241 0.0 0.0 0.00 0.00 0.00 94 1017.3
20260901111637 73 241 0.0 0.0 0.00 0.00 0.00 93 1017.3
20260901111137 73 241 0.0 0.0 0.00 0.00 0.00 93 1017.2
20260901110902 73 241 0.0 0.0 0.00 0.00 0.00 93 1017.2
20260901110403 73 241 0.0 0.0 0.00 0.00 0.00 93 1017.2
20260901105635 73 241 0.0 0.0 0.00 0.00 0.00 93 1017.2
20260901105129 73 241 0.0 0.0 0.00 0.00 0.00 93 1017.2
20260901104624 73 241 0.0 0.0 0.00 0.00 0.00 93 1017.2
20260901104117 73 241 0.0 0.0 0.00 0.00 0.00 93 1017.1
20260901103611 73 241 0.0 0.0 0.00 0.00 0.00 93 1017.1
20260901103106 73 241 0.0 0.0 0.00 0.00 0.00 93 1017.0
20260901102807 73 241 0.0 0.0 0.00 0.00 0.00 93 1017.1
20260901102653 73 241 0.0 0.0 0.00 0.00 0.00 93 1017.0
20260901101550 73 241 0.0 0.0 0.00 0.00 0.00 93 1017.1
20260901101041 73 241 0.0 0.0 0.00 0.00 0.00 93 1017.1
20260901100536 73 241 0.0 0.0 0.00 0.00 0.00 93 1017.1
20260901100029 73 241 0.0 0.0 0.00 0.00 0.00 93 1017.0
20260901095745 73 241 0.0 0.0 0.00 0.00 0.00 93 1017.1
20260901095017 73 241 0.0 0.0 0.00 0.00 0.00 93 1017.0
20260901094737 73 241 0.0 0.0 0.00 0.00 0.00 93 1017.0
20260901094005 73 241 0.0 0.0 0.00 0.00 0.00 93 1017.0
20260901093459 73 241 0.0 0.0 0.00 0.00 0.00 93 1017.0
20260901092953 73 241 0.0 0.0 0.00 0.00 0.00 93 1017.1
20260901092448 73 241 0.0 0.0 0.00 0.00 0.00 93 1017.1
20260901091941 73 241 0.0 0.0 0.00 0.00 0.00 93 1017.1
20260901091435 74 241 0.0 0.0 0.00 0.00 0.00 93 1017.2
20260901091152 74 241 0.0 0.0 0.00 0.00 0.00 93 1017.3
20260901090647 74 241 0.0 0.0 0.00 0.00 0.00 93 1017.2
20260901085917 74 241 0.0 0.0 0.00 0.00 0.00 93 1017.2
20260901085411 74 241 0.0 0.0 0.00 0.00 0.00 93 1017.1
20260901085359 74 241 0.0 0.0 0.00 0.00 0.00 93 1017.1
20260901084400 74 241 0.0 0.9 0.00 0.00 0.00 93 1017.1
20260901083853 74 241 0.0 0.9 0.00 0.00 0.00 93 1017.1
20260901083347 74 241 0.0 0.9 0.00 0.00 0.00 93 1017.1
20260901083113 74 241 0.0 0.9 0.00 0.00 0.00 93 1017.1
20260901082335 74 241 0.0 0.0 0.00 0.00 0.00 93 1017.1
20260901081829 74 241 0.0 0.0 0.00 0.00 0.00 93 1017.1
20260901081323 74 241 0.0 0.0 0.00 0.00 0.00 93 1017.1
20260901080823 74 241 0.0 0.9 0.00 0.00 0.00 93 1017.1
20260901080320 74 241 0.0 0.9 0.00 0.00 0.00 93 1017.2
20260901080259 74 277 0.0 0.0 0.00 0.00 0.00 93 1017.2
20260901075316 74 277 0.0 0.0 0.00 0.00 0.00 93 1017.1
20260901074814 74 277 0.0 0.9 0.00 0.00 0.00 93 1017.2
20260901074536 74 277 0.0 0.9 0.00 0.00 0.00 93 1017.2
20260901073814 75 277 0.0 0.0 0.00 0.00 0.00 93 1017.2
20260901073313 75 277 0.0 0.0 0.00 0.00 0.00 93 1017.3
20260901072812 75 277 0.0 0.0 0.00 0.00 0.00 93 1017.3
20260901072749 75 277 0.0 0.0 0.00 0.00 0.00 93 1017.4
20260901072246 75 277 0.0 0.0 0.00 0.00 0.00 93 1017.5
20260901071305 75 277 0.0 0.0 0.00 0.00 0.00 93 1017.6
20260901071249 75 277 0.0 0.0 0.00 0.00 0.00 93 1017.6
20260901070301 75 277 0.0 0.0 0.00 0.00 0.00 93 1017.6
20260901065801 75 277 0.0 0.0 0.00 0.00 0.00 93 1017.5
20260901065533 75 277 0.0 0.0 0.00 0.00 0.00 93 1017.6
20260901064801 75 277 0.0 0.0 0.00 0.00 0.00 93 1017.7
20260901064301 75 277 0.0 0.9 0.00 0.00 0.00 93 1017.8
20260901063801 75 277 0.0 0.9 0.00 0.00 0.00 93 1017.7
20260901063529 75 231 0.0 0.9 0.00 0.00 0.00 93 1017.8
20260901062801 75 231 0.0 0.0 0.00 0.00 0.00 93 1017.7
20260901062301 75 231 0.0 0.0 0.00 0.00 0.00 93 1017.6
20260901061759 75 231 0.0 0.0 0.00 0.00 0.00 92 1017.6
20260901061518 75 231 0.0 0.0 0.00 0.00 0.00 92 1017.6
20260901060801 75 231 0.0 0.0 0.00 0.00 0.00 92 1017.7
20260901060259 75 231 0.0 0.0 0.00 0.00 0.00 92 1017.8
20260901055757 75 231 0.0 0.0 0.00 0.00 0.00 92 1017.8
20260901055256 75 231 0.0 0.0 0.00 0.00 0.00 92 1017.8
20260901054757 75 231 0.0 0.9 0.00 0.00 0.00 92 1017.9
20260901054254 75 231 0.0 0.9 0.00 0.00 0.00 92 1017.9
20260901053753 75 231 0.0 1.7 0.00 0.00 0.00 92 1018.1
20260901053254 75 231 0.0 1.7 0.00 0.00 0.00 92 1018.2
20260901052752 75 34 0.0 0.0 0.00 0.00 0.00 92 1018.1
20260901052252 76 34 0.0 0.0 0.00 0.00 0.00 92 1018.1
20260901051752 76 34 0.0 0.0 0.00 0.00 0.00 92 1018.2
20260901051250 76 34 0.0 0.0 0.00 0.00 0.00 92 1018.2
20260901051012 76 34 0.0 0.0 0.00 0.00 0.00 92 1018.2
20260901050250 76 34 0.0 0.0 0.00 0.00 0.00 91 1018.3
20260901045751 76 34 0.0 0.0 0.00 0.00 0.00 91 1018.4
20260901045250 76 34 0.0 0.0 0.00 0.00 0.00 91 1018.4
20260901044751 76 34 0.0 0.0 0.00 0.00 0.00 91 1018.4
20260901044728 76 34 0.0 0.0 0.00 0.00 0.00 91 1018.5
20260901044013 76 34 0.0 0.0 0.00 0.00 0.00 91 1018.6
20260901043512 76 34 0.0 0.0 0.00 0.00 0.00 91 1018.7
20260901042752 76 34 0.0 0.0 0.00 0.00 0.00 91 1018.7
20260901042250 76 34 0.0 0.0 0.00 0.00 0.00 91 1018.6
20260901041752 76 34 0.0 0.0 0.00 0.00 0.00 91 1018.5
20260901041251 76 34 0.0 0.0 0.00 0.00 0.00 91 1018.6
20260901040750 76 34 0.0 0.0 0.00 0.00 0.00 90 1018.6
20260901040250 76 34 0.0 0.0 0.00 0.00 0.00 90 1018.6
20260901035751 76 34 0.0 0.0 0.00 0.00 0.00 90 1018.6
20260901035249 76 34 0.0 0.0 0.00 0.00 0.00 90 1018.6
20260901034746 76 34 0.0 0.0 0.00 0.00 0.00 90 1018.6
20260901034502 76 34 0.0 0.0 0.00 0.00 0.00 90 1018.5
20260901033745 76 34 0.0 0.0 0.00 0.00 0.00 89 1018.6
20260901033238 76 34 0.0 0.0 0.00 0.00 0.00 89 1018.6
20260901032732 76 34 0.0 0.0 0.00 0.00 0.00 89 1018.5
20260901032227 76 34 0.0 0.0 0.00 0.00 0.00 89 1018.5
20260901031721 77 34 0.0 0.0 0.00 0.00 0.00 89 1018.5
20260901031215 77 34 0.0 0.9 0.00 0.00 0.00 89 1018.6
20260901030936 77 34 0.0 0.9 0.00 0.00 0.00 89 1018.5
20260901030207 77 34 0.0 0.0 0.00 0.00 0.00 88 1018.5
20260901025708 77 34 0.0 0.0 0.00 0.00 0.00 88 1018.4
20260901025645 77 34 0.0 0.0 0.00 0.00 0.00 88 1018.4
20260901024709 77 34 0.0 0.0 0.00 0.00 0.00 88 1018.4
20260901024208 78 34 0.0 0.0 0.00 0.00 0.00 88 1018.4
20260901023710 78 34 0.0 0.0 0.00 0.00 0.00 88 1018.5
20260901023208 78 34 0.0 0.0 0.00 0.00 0.00 88 1018.5
20260901022707 78 34 0.0 0.0 0.00 0.00 0.00 88 1018.4
20260901022209 78 34 0.0 0.0 0.00 0.00 0.00 88 1018.4
20260901021917 78 34 0.0 0.0 0.00 0.00 0.00 87 1018.3
20260901021800 78 34 0.0 0.0 0.00 0.00 0.00 87 1018.4
20260901020704 78 34 0.0 0.0 0.00 0.00 0.00 87 1018.4
20260901020206 78 34 0.0 0.0 0.00 0.00 0.00 87 1018.4
20260901015704 79 34 0.0 0.0 0.00 0.00 0.00 87 1018.3
20260901015204 79 34 0.0 0.0 0.00 0.00 0.00 86 1018.3
20260901014705 79 34 0.0 0.0 0.00 0.00 0.00 86 1018.3
20260901014205 79 34 0.0 0.0 0.00 0.00 0.00 86 1018.2
20260901013704 79 34 0.0 0.0 0.00 0.00 0.00 86 1018.3
20260901013200 79 34 0.0 0.0 0.00 0.00 0.00 86 1018.3
20260901012659 79 34 0.0 0.0 0.00 0.00 0.00 86 1018.2
20260901012420 80 34 0.0 0.0 0.00 0.00 0.00 86 1018.2
20260901011701 80 34 0.0 0.0 0.00 0.00 0.00 86 1018.2
20260901011159 80 34 0.0 0.0 0.00 0.00 0.00 86 1018.1
20260901010702 80 34 0.0 0.0 0.00 0.00 0.00 86 1018.1
20260901010202 80 34 0.0 0.0 0.00 0.00 0.00 85 1018.2
20260901005702 80 34 0.0 0.0 0.00 0.00 0.00 85 1018.1
20260901005202 80 34 0.0 0.0 0.00 0.00 0.00 85 1018.1
20260901004923 80 34 0.0 0.0 0.00 0.00 0.00 84 1018.0
20260901004148 80 34 0.0 0.0 0.00 0.00 0.00 84 1018.1
20260901003644 81 34 0.0 0.0 0.00 0.00 0.00 84 1018.0
20260901003137 81 34 0.0 0.0 0.00 0.00 0.00 84 1017.9
20260901002854 81 34 0.0 0.0 0.00 0.00 0.00 83 1017.9
20260901002126 81 34 0.0 0.0 0.00 0.00 0.00 83 1017.9
20260901001620 81 34 0.0 0.0 0.00 0.00 0.00 83 1017.9
20260901001114 82 34 0.0 0.0 0.00 0.00 0.00 83 1017.9
20260901000834 82 34 0.0 0.0 0.00 0.00 0.00 82 1017.8
20260831235556 82 34 0.0 0.0 0.00 0.00 0.00 82 1017.9
20260831235308 82 34 0.0 0.0 0.00 0.00 0.00 82 1017.9
20260831234807 82 34 0.0 0.0 0.00 0.00 0.00 81 1017.9
20260831234258 83 34 0.0 0.0 0.00 0.00 0.00 81 1017.8
20260831233532 83 34 0.0 0.0 0.00 0.00 0.00 81 1017.9
20260831233025 83 34 0.0 0.0 0.00 0.00 0.00 81 1017.9
20260831232520 83 34 0.0 0.0 0.00 0.00 0.00 81 1017.9
20260831232241 83 34 0.0 0.0 0.00 0.00 0.00 80 1017.9
20260831231509 83 34 0.0 0.0 0.00 0.00 0.00 80 1017.9
20260831231002 83 34 0.0 0.0 0.00 0.00 0.00 80 1018.0
20260831230456 84 34 0.0 0.0 0.00 0.00 0.00 80 1018.1
20260831225948 84 34 0.0 0.0 0.00 0.00 0.00 79 1018.1
20260831225443 84 34 0.0 0.0 0.00 0.00 0.00 79 1018.2
20260831224938 84 34 0.0 0.0 0.00 0.00 0.00 79 1018.2
20260831224918 84 34 0.0 0.0 0.00 0.00 0.00 79 1018.2
20260831223925 84 34 0.0 0.0 0.00 0.00 0.00 78 1018.3
20260831223420 84 34 0.0 0.0 0.00 0.00 0.00 78 1018.3
20260831222913 84 34 0.0 0.0 0.00 0.00 0.00 77 1018.3
20260831222407 85 34 0.0 0.0 0.00 0.00 0.00 76 1018.4
20260831221901 85 34 0.0 0.0 0.00 0.00 0.00 76 1018.4
20260831221355 85 34 0.0 0.0 0.00 0.00 0.00 75 1018.5
20260831220849 85 34 0.0 0.9 0.00 0.00 0.00 76 1018.5
20260831220343 85 34 0.0 0.9 0.00 0.00 0.00 75 1018.6
20260831215839 85 34 0.0 0.9 0.00 0.00 0.00 75 1018.6
20260831215335 85 34 0.0 0.9 0.00 0.00 0.00 76 1018.6
20260831214826 85 34 0.0 0.9 0.00 0.00 0.00 75 1018.4
20260831214320 86 34 0.0 0.9 0.00 0.00 0.00 75 1018.4
20260831213813 85 34 0.0 0.0 0.00 0.00 0.00 74 1018.4
20260831213308 86 34 0.0 0.0 0.00 0.00 0.00 74 1018.4
20260831212803 86 34 0.0 0.0 0.00 0.00 0.00 76 1018.3
20260831212306 86 34 0.0 0.9 0.00 0.00 0.00 75 1018.3
20260831212023 86 34 0.0 0.9 0.00 0.00 0.00 75 1018.3
20260831211305 86 350 0.0 0.9 0.00 0.00 0.00 74 1018.3
20260831210803 86 350 0.0 0.9 0.00 0.00 0.00 73 1018.3
20260831210300 86 350 0.0 0.0 0.00 0.00 0.00 74 1018.3
20260831205759 85 350 0.0 0.0 0.00 0.00 0.00 74 1018.3
20260831205300 85 350 0.0 0.0 0.00 0.00 0.00 74 1018.3
20260831204758 85 350 0.0 0.0 0.00 0.00 0.00 73 1018.3
20260831204259 85 350 0.0 0.9 0.00 0.00 0.00 72 1018.2
20260831203759 86 350 0.0 0.9 0.00 0.00 0.00 72 1018.3
20260831203747 86 67 0.0 0.9 0.00 0.00 0.00 73 1018.4
20260831203020 86 67 0.0 0.0 0.00 0.00 0.00 72 1018.3
20260831202252 86 344 0.0 0.9 0.00 0.00 0.00 70 1018.4
20260831202017 86 344 0.0 0.9 0.00 0.00 0.00 71 1018.4
20260831201247 86 344 0.0 0.9 0.00 0.00 0.00 71 1018.4
20260831200747 86 56 0.0 0.9 0.00 0.00 0.00 72 1018.3
20260831200731 86 56 0.0 0.0 0.00 0.00 0.00 69 1018.4
20260831195742 86 56 0.0 0.9 0.00 0.00 0.00 70 1018.4
20260831195239 86 56 0.0 1.7 0.00 0.00 0.00 72 1018.3
20260831194947 86 102 0.9 1.7 0.00 0.00 0.00 70 1018.4
20260831194829 86 56 0.9 1.7 0.00 0.00 0.00 71 1018.3
20260831193727 86 65 0.0 1.7 0.00 0.00 0.00 69 1018.5
20260831193222 86 44 0.0 0.9 0.00 0.00 0.00 70 1018.6
20260831192717 87 355 0.0 0.9 0.00 0.00 0.00 68 1018.6
20260831192209 86 312 0.0 1.7 0.00 0.00 0.00 67 1018.6
20260831191704 87 312 0.9 1.7 0.00 0.00 0.00 66 1018.7
20260831191423 87 53 0.9 1.7 0.00 0.00 0.00 67 1018.7
20260831190652 87 49 0.9 2.6 0.00 0.00 0.00 69 1018.8
20260831190410 87 88 0.9 2.6 0.00 0.00 0.00 69 1018.9
20260831185639 87 109 0.9 1.7 0.00 0.00 0.00 69 1019.0
20260831185137 87 119 0.0 1.7 0.00 0.00 0.00 68 1019.0
20260831184637 87 81 0.0 1.7 0.00 0.00 0.00 70 1018.9
20260831184137 87 81 0.9 2.6 0.00 0.00 0.00 69 1018.9
20260831183638 87 97 0.9 2.6 0.00 0.00 0.00 69 1018.9
20260831183136 87 119 0.0 1.7 0.00 0.00 0.00 68 1018.9
20260831182634 86 87 0.0 0.9 0.00 0.00 0.00 70 1018.9
20260831182131 87 87 0.0 1.7 0.00 0.00 0.00 66 1018.8
20260831181633 87 87 0.9 1.7 0.00 0.00 0.00 65 1018.8
20260831181130 88 88 0.9 2.6 0.00 0.00 0.00 63 1018.9
20260831180630 88 88 0.9 2.6 0.00 0.00 0.00 62 1019.0
20260831180129 88 90 0.0 1.7 0.00 0.00 0.00 61 1019.0
20260831175629 89 306 0.9 3.5 0.00 0.00 0.00 61 1019.1
20260831175130 90 44 0.9 3.5 0.00 0.00 0.00 58 1019.0
20260831174627 89 261 0.9 2.6 0.00 0.00 0.00 63 1019.0
20260831174127 89 244 0.9 2.6 0.00 0.00 0.00 64 1018.9
20260831173856 90 300 0.9 2.6 0.00 0.00 0.00 58 1019.0
20260831173345 91 78 0.9 2.6 0.00 0.00 0.00 58 1019.0
20260831172628 91 130 0.9 2.6 0.00 0.00 0.00 59 1019.0
20260831172122 91 180 0.9 1.7 0.00 0.00 0.00 61 1019.1
20260831171615 89 179 0.9 2.6 0.00 0.00 0.00 64 1019.2
20260831171114 88 267 0.9 2.6 0.00 0.00 0.00 65 1019.2
20260831170614 88 16 0.9 2.6 0.00 0.00 0.00 61 1019.3
20260831170117 89 82 1.7 3.5 0.00 0.00 0.00 62 1019.4
20260831165824 87 114 0.9 3.5 0.00 0.00 0.00 67 1019.6
20260831165711 87 297 1.7 3.5 0.00 0.00 0.00 63 1019.5
20260831164616 88 63 1.7 4.3 0.00 0.00 0.00 67 1019.6
20260831164118 88 298 0.9 4.3 0.00 0.00 0.00 66 1019.6
20260831163845 87 92 0.9 3.5 0.00 0.00 0.00 68 1019.6
20260831163118 86 67 1.7 5.2 0.00 0.00 0.00 70 1019.7
20260831162823 87 71 0.9 3.5 0.00 0.00 0.00 67 1019.8
20260831162705 87 90 1.7 5.2 0.00 0.00 0.00 67 1019.8
20260831161613 87 84 1.7 2.6 0.00 0.00 0.00 68 1019.8
20260831161111 86 71 0.9 2.6 0.00 0.00 0.00 69 1019.9
20260831160613 87 286 1.7 6.1 0.00 0.00 0.00 70 1019.9
20260831160110 85 65 1.7 6.1 0.00 0.00 0.00 69 1019.9
20260831155611 85 67 0.9 2.6 0.00 0.00 0.00 69 1019.8
20260831155111 85 28 0.9 6.1 0.00 0.00 0.00 70 1019.8
20260831154612 85 325 0.9 6.1 0.00 0.00 0.00 70 1019.7
20260831154113 84 46 0.9 2.6 0.00 0.00 0.00 73 1019.7
20260831153612 84 137 0.9 2.6 0.00 0.00 0.00 73 1019.6
20260831153338 83 96 1.7 3.5 0.00 0.00 0.00 74 1019.6
20260831152611 82 106 0.9 3.5 0.00 0.00 0.00 75 1019.5
20260831152111 82 84 0.9 4.3 0.00 0.00 0.00 77 1019.7
20260831151611 82 317 0.9 4.3 0.00 0.00 0.00 77 1019.7
20260831151332 81 119 0.9 2.6 0.00 0.00 0.00 77 1019.6
20260831150833 82 133 0.9 2.6 0.00 0.00 0.00 78 1019.7
20260831150111 81 273 0.9 2.6 0.00 0.00 0.00 79 1019.7
20260831145605 81 104 0.9 2.6 0.00 0.00 0.00 79 1019.7
20260831145059 81 355 0.9 3.5 0.00 0.00 0.00 79 1019.7
20260831144553 80 298 0.9 3.5 0.00 0.00 0.00 79 1019.6
20260831144315 79 283 0.0 2.6 0.00 0.00 0.00 82 1019.7